CAPE
0 0 0 0 0 0 0 0 0 0 0 0 0 0 0 0 0 0 0 0 0 0 0 0 0 0 0 0 0 0 0 0 0 0 0 0 12 446 160 203 330 425 373 311 590
0 0 0 0 0 0 0 0 0 0 0 0 0 0 0 0 0 0 0 0 0 0 0 0 0 0 0 0 0 0 0 0 0 0 0 0 0 33 86 38 39 334 507 662 658
0 0 0 0 0 0 0 0 0 0 0 0 0 0 0 0 0 0 0 0 0 0 0 0 0 0 0 0 0 0 0 0 0 0 0 0 0 0 23 106 183 111 490 690 573
0 0 0 0 0 0 0 0 0 0 0 0 0 0 0 0 0 0 0 0 0 0 0 0 0 0 0 0 0 0 0 0 0 0 0 0 0 0 25 97 209 209 599 719 533
0 0 0 0 0 0 0 0 0 0 0 0 0 0 0 0 0 0 0 0 0 0 0 0 0 0 0 0 0 0 0 0 0 0 0 0 0 0 5 128 288 357 726 708 637
0 0 0 0 0 0 0 0 0 0 0 0 0 0 0 0 0 0 0 0 0 0 0 0 0 0 0 0 0 0 0 0 0 0 0 0 0 2 0 188 318 391 547 727 637
0 0 0 0 0 0 0 0 0 0 0 0 0 0 0 0 0 0 0 0 0 0 0 0 0 0 0 0 0 0 0 0 0 0 0 0 0 0 0 216 289 435 453 613 572
0 0 0 0 0 0 0 0 0 0 0 0 0 0 0 0 0 0 0 0 0 0 0 0 0 0 0 0 0 0 0 0 0 0 0 0 0 0 13 263 413 403 434 456 300
0 0 0 0 0 0 0 0 0 0 0 0 0 0 0 0 0 0 0 0 0 0 0 0 0 0 0 0 0 0 0 0 0 0 0 0 0 0 7 181 282 439 423 364 232
0 0 0 0 0 0 0 0 0 0 0 0 0 0 0 0 0 0 0 0 0 0 0 0 0 0 0 0 0 0 0 0 0 0 0 0 0 0 95 158 171 278 392 307 258
0 0 0 0 0 0 0 0 0 0 0 0 0 0 0 0 0 0 0 0 0 0 0 0 0 0 0 0 0 0 0 0 0 0 0 0 0 0 190 234 156 157 286 308 258
0 0 0 0 0 0 0 0 0 0 0 0 0 0 0 0 0 0 0 0 0 0 0 0 0 0 0 0 0 0 0 0 0 0 0 0 0 0 38 223 306 249 198 255 234
0 0 0 0 0 0 0 0 0 0 0 0 0 0 0 0 0 0 0 0 0 0 0 0 0 0 0 0 0 0 0 0 0 0 0 0 0 2 0 53 154 140 15 51 157
0 0 0 0 0 0 0 0 0 0 0 0 0 0 0 0 0 0 0 0 0 0 0 0 0 0 0 0 0 0 0 0 0 0 0 0 0 0 0 0 4 65 463 715 307
0 0 0 0 0 0 0 0 0 0 0 0 0 0 0 0 0 0 0 0 0 0 0 0 0 0 0 0 0 0 0 0 0 0 0 0 0 0 0 0 0 6 351 573 201
0 0 0 0 0 0 0 0 0 0 0 0 0 0 0 0 0 0 0 0 0 0 0 0 0 0 0 0 0 0 0 0 0 0 0 0 0 0 0 0 0 2 317 359 239
0 0 0 0 0 0 0 0 0 0 0 0 0 0 0 0 0 0 0 0 0 0 0 0 0 0 0 0 0 0 0 0 0 0 0 0 0 0 0 3 38 126 385 618 470
0 0 0 0 0 0 0 0 0 0 0 0 0 0 0 0 0 0 0 0 0 0 0 0 0 0 0 0 0 0 0 0 0 0 0 0 0 0 0 1 17 166 510 977 729
0 0 0 0 0 0 0 0 0 0 0 0 0 0 0 0 0 0 0 0 0 0 0 0 0 0 0 0 0 0 0 0 0 0 0 0 0 0 0 0 0 0 191 558 1025
0 0 0 0 0 0 0 0 0 0 0 0 0 0 0 0 0 0 0 0 0 0 0 0 0 0 0 0 0 0 0 0 0 0 0 0 0 0 0 0 0 21 100 159 264
0 0 0 0 0 0 0 0 0 0 0 0 0 0 0 0 0 0 0 0 0 0 0 0 0 0 0 0 0 0 0 0 0 0 0 0 0 0 0 0 0 9 145 187 89
0 0 0 0 0 0 0 0 0 0 0 0 0 0 0 0 0 0 0 0 0 0 0 0 0 0 0 0 0 0 0 0 0 0 0 0 0 0 0 0 0 0 40 116 21
0 0 0 0 0 0 0 0 0 0 0 0 0 0 0 0 0 0 0 0 0 0 0 0 0 0 0 0 0 0 0 0 0 0 0 0 0 0 0 0 0 0 0 13 32
0 0 0 0 0 0 0 0 0 0 0 0 0 0 0 0 0 0 0 0 0 0 0 0 0 0 0 0 0 0 0 0 0 0 0 0 0 0 0 0 0 0 0 68 1
0 0 0 0 0 0 0 0 0 0 0 0 0 0 0 0 0 0 0 0 0 0 0 0 0 0 0 0 0 0 0 0 0 0 0 0 0 0 0 0 0 0 3 140 146
0 0 0 0 0 0 0 0 0 0 0 0 0 0 0 0 0 0 0 0 0 0 0 0 0 0 0 0 0 0 0 0 0 0 0 0 0 0 0 0 0 0 142 190 161
0 0 0 0 0 0 0 0 0 0 0 0 0 0 0 0 0 0 0 0 0 0 0 0 0 0 0 0 0 0 0 0 0 0 0 0 0 0 0 0 0 84 137 97 79
CIN
0 0 0 0 0 0 0 0 0 0 0 0 0 0 0 0 0 0 0 0 0 0 0 0 0 0 0 0 0 0 0 0 0 0 0 0 -70 -101 -196 -126 -195 -210 -253 -283 -361
0 0 0 0 0 0 0 0 0 0 0 0 0 0 0 0 0 0 0 0 0 0 0 0 0 0 0 0 0 0 0 0 0 0 0 0 0 -132 -116 -120 -182 -222 -285 -333 -342
0 0 0 0 0 0 0 0 0 0 0 0 0 0 0 0 0 0 0 0 0 0 0 0 0 0 0 0 0 0 0 0 0 0 0 0 0 0 -130 -67 -78 -133 -277 -354 -352
0 0 0 0 0 0 0 0 0 0 0 0 0 0 0 0 0 0 0 0 0 0 0 0 0 0 0 0 0 0 0 0 0 0 0 0 0 0 -140 -94 -161 -198 -302 -392 -377
0 0 0 0 0 0 0 0 0 0 0 0 0 0 0 0 0 0 0 0 0 0 0 0 0 0 0 0 0 0 0 0 0 0 0 0 0 0 -158 -156 -202 -247 -373 -374 -372
0 0 0 0 0 0 0 0 0 0 0 0 0 0 0 0 0 0 0 0 0 0 0 0 0 0 0 0 0 0 0 0 0 0 0 0 0 -64 0 -236 -200 -228 -309 -405 -391
0 0 0 0 0 0 0 0 0 0 0 0 0 0 0 0 0 0 0 0 0 0 0 0 0 0 0 0 0 0 0 0 0 0 0 0 0 0 0 -235 -220 -204 -275 -378 -408
0 0 0 0 0 0 0 0 0 0 0 0 0 0 0 0 0 0 0 0 0 0 0 0 0 0 0 0 0 0 0 0 0 0 0 0 0 0 -207 -190 -183 -217 -241 -331 -400
0 0 0 0 0 0 0 0 0 0 0 0 0 0 0 0 0 0 0 0 0 0 0 0 0 0 0 0 0 0 0 0 0 0 0 0 0 0 -97 -213 -197 -231 -238 -289 -349
0 0 0 0 0 0 0 0 0 0 0 0 0 0 0 0 0 0 0 0 0 0 0 0 0 0 0 0 0 0 0 0 0 0 0 0 0 0 -439 -402 -357 -334 -289 -287 -323
0 0 0 0 0 0 0 0 0 0 0 0 0 0 0 0 0 0 0 0 0 0 0 0 0 0 0 0 0 0 0 0 0 0 0 0 0 0 -432 -382 -387 -386 -328 -341 -366
0 0 0 0 0 0 0 0 0 0 0 0 0 0 0 0 0 0 0 0 0 0 0 0 0 0 0 0 0 0 0 0 0 0 0 0 0 0 -341 -282 -280 -273 -305 -320 -348
0 0 0 0 0 0 0 0 0 0 0 0 0 0 0 0 0 0 0 0 0 0 0 0 0 0 0 0 0 0 0 0 0 0 0 0 0 -222 0 -320 -280 -315 -322 -277 -368
0 0 0 0 0 0 0 0 0 0 0 0 0 0 0 0 0 0 0 0 0 0 0 0 0 0 0 0 0 0 0 0 0 0 0 0 0 0 0 0 -227 -269 -246 -314 -478
0 0 0 0 0 0 0 0 0 0 0 0 0 0 0 0 0 0 0 0 0 0 0 0 0 0 0 0 0 0 0 0 0 0 0 0 0 0 0 0 0 -239 -261 -316 -558
0 0 0 0 0 0 0 0 0 0 0 0 0 0 0 0 0 0 0 0 0 0 0 0 0 0 0 0 0 0 0 0 0 0 0 0 0 0 0 0 0 -152 -225 -276 -464
0 0 0 0 0 0 0 0 0 0 0 0 0 0 0 0 0 0 0 0 0 0 0 0 0 0 0 0 0 0 0 0 0 0 0 0 0 0 -41 -214 -237 -244 -232 -295 -375
0 0 0 0 0 0 0 0 0 0 0 0 0 0 0 0 0 0 0 0 0 0 0 0 0 0 0 0 0 0 0 0 0 0 0 0 0 0 0 -32 -223 -221 -193 -186 -274
0 0 0 0 0 0 0 0 0 0 0 0 0 0 0 0 0 0 0 0 0 0 0 0 0 0 0 0 0 0 0 0 0 0 0 0 0 0 0 0 0 0 -181 -172 -219
0 0 0 0 0 0 0 0 0 0 0 0 0 0 0 0 0 0 0 0 0 0 0 0 0 0 0 0 0 0 0 0 0 0 0 0 0 0 0 0 0 -162 -138 -184 -273
0 0 0 0 0 0 0 0 0 0 0 0 0 0 0 0 0 0 0 0 0 0 0 0 0 0 0 0 0 0 0 0 0 0 0 0 0 0 0 0 0 -201 -161 -180 -265
0 0 0 0 0 0 0 0 0 0 0 0 0 0 0 0 0 0 0 0 0 0 0 0 0 0 0 0 0 0 0 0 0 0 0 0 0 0 0 0 0 0 -239 -261 -407
0 0 0 0 0 0 0 0 0 0 0 0 0 0 0 0 0 0 0 0 0 0 0 0 0 0 0 0 0 0 0 0 0 0 0 0 0 0 0 0 0 0 0 -343 -372
0 0 0 0 0 0 0 0 0 0 0 0 0 0 0 0 0 0 0 0 0 0 0 0 0 0 0 0 0 0 0 0 0 0 0 0 0 0 0 0 0 0 0 -260 -147
0 0 0 0 0 0 0 0 0 0 0 0 0 0 0 0 0 0 0 0 0 0 0 0 0 0 0 0 0 0 0 0 0 0 0 0 0 0 0 0 0 0 -104 -242 -242
0 0 0 0 0 0 0 0 0 0 0 0 0 0 0 0 0 0 0 0 0 0 0 0 0 0 0 0 0 0 0 0 0 0 0 0 0 0 0 0 0 -18 -195 -178 -182
0 0 0 0 0 0 0 0 0 0 0 0 0 0 0 0 0 0 0 0 0 0 0 0 0 0 0 0 0 0 0 0 0 0 0 0 0 0 0 0 0 -184 -163 -148 -156
Wind_Speed
25 26 27 27 27 28 28 28 27 26 24 24 23 23 22 22 21 18 16 12 14 13 13 12 12 10 10 8 9 8 9 6 8 10 12 17 16 14 12 10 12 12 13 13 22
25 26 26 27 27 27 27 27 26 24 23 22 22 21 21 21 20 16 14 15 16 16 14 14 13 13 10 9 8 8 7 4 7 9 14 18 15 11 9 8 9 12 14 15 18
26 26 26 27 26 26 26 25 24 22 22 22 21 21 20 19 15 15 15 15 16 16 15 16 16 13 11 10 8 8 8 5 9 9 12 12 11 11 7 11 9 8 11 15 13
26 25 25 25 25 24 24 23 22 21 21 21 20 19 18 16 12 15 14 14 14 13 13 14 14 14 13 11 8 10 8 7 12 10 11 10 12 8 7 10 12 8 10 12 13
25 25 25 24 24 23 22 22 21 21 21 20 19 18 16 14 13 15 13 13 13 12 12 13 14 13 14 13 12 11 12 12 15 14 9 8 5 6 9 5 8 8 7 11 14
26 25 24 23 23 22 21 20 20 20 19 19 18 16 14 12 14 13 12 13 13 11 11 13 14 14 13 14 14 14 19 21 18 19 16 12 14 10 4 6 3 4 8 13 15
25 24 24 23 22 22 20 19 19 18 17 17 15 15 14 12 14 12 11 12 12 11 13 13 15 15 15 15 15 18 22 21 16 17 16 10 16 9 10 5 3 8 8 11 14
24 24 23 23 22 22 21 20 19 17 16 16 14 15 13 13 15 12 10 12 12 10 14 16 16 17 16 17 19 19 16 15 17 19 12 12 22 5 4 3 4 9 6 8 15
24 24 24 24 23 22 22 22 19 16 16 14 15 15 13 16 15 11 9 12 13 14 15 15 16 17 17 16 16 16 15 17 18 18 18 17 25 25 15 4 5 9 10 13 16
25 25 25 24 23 22 21 17 15 15 16 16 15 14 14 16 15 11 9 12 15 16 15 16 16 16 16 14 14 16 17 18 20 20 22 20 25 25 15 13 14 9 13 15 19
25 26 25 25 23 21 19 17 19 17 19 18 16 15 16 17 15 13 11 12 13 15 15 16 17 18 18 14 15 17 18 20 20 20 19 21 24 24 14 10 13 15 13 27 33
26 26 26 25 23 19 16 17 17 18 20 19 14 12 14 14 14 13 11 11 13 14 16 16 17 19 19 15 15 19 20 18 18 15 18 21 23 22 19 14 15 27 31 29 27
27 27 26 25 21 15 17 17 20 16 18 17 11 11 12 10 13 12 13 13 13 14 14 15 14 21 18 16 17 18 16 16 16 17 17 20 21 21 19 20 21 23 17 21 23
28 28 26 25 17 18 16 20 20 16 16 11 11 12 10 10 13 10 13 13 13 14 14 15 12 15 17 18 16 18 14 17 18 18 20 20 18 20 22 22 23 27 29 27 11
29 28 26 22 21 17 18 22 17 15 17 10 10 12 11 9 12 12 10 11 13 15 14 16 17 18 16 17 15 18 15 18 18 18 15 19 16 16 20 22 27 30 33 33 19
30 29 27 19 19 19 22 19 15 15 16 10 9 9 8 12 12 12 11 12 14 13 14 14 13 15 13 16 19 17 17 19 19 16 17 19 17 18 19 22 28 30 31 31 24
32 30 25 20 18 20 20 16 16 15 14 11 10 10 9 11 13 12 10 11 14 14 14 16 14 13 17 15 15 19 19 20 18 18 17 17 18 17 18 22 26 29 30 27 22
32 30 20 22 19 20 16 15 17 15 14 15 15 12 11 12 16 13 11 11 13 14 16 16 17 18 12 16 13 14 16 15 17 17 17 17 18 20 13 20 25 28 28 24 23
30 22 21 20 19 17 14 17 15 13 17 17 14 13 14 14 15 13 14 11 12 11 15 15 14 17 20 20 16 13 16 15 15 15 15 17 17 19 13 17 23 26 26 25 24
25 22 18 17 10 13 15 18 16 15 19 16 12 14 15 16 14 14 13 16 14 14 13 14 17 18 18 15 19 16 14 16 17 10 8 10 12 12 11 10 16 19 22 24 25
21 19 17 15 15 15 18 18 19 21 18 16 14 13 14 15 16 17 18 16 16 15 13 13 16 18 18 20 20 19 18 18 17 16 8 6 8 11 11 8 10 14 18 21 22
20 20 18 15 18 17 18 17 19 21 19 18 16 15 16 17 17 17 16 17 19 16 16 16 16 20 21 23 15 16 19 19 19 17 14 8 11 18 15 11 11 9 13 17 19
22 21 18 16 21 20 19 20 19 21 20 19 17 17 16 17 19 17 16 17 19 16 15 14 18 21 20 19 17 19 20 19 19 19 17 12 14 15 19 17 15 11 11 14 19
20 22 20 17 18 18 20 21 21 20 18 19 18 19 18 19 20 18 19 21 19 18 19 19 19 20 23 24 21 21 20 21 22 24 24 16 20 17 23 25 19 11 9 12 17
19 21 20 22 21 20 20 20 21 22 20 19 20 20 20 22 21 21 21 20 19 22 21 21 23 23 25 24 23 24 23 22 22 24 25 32 22 19 26 25 19 13 11 13 15
21 21 20 21 21 20 21 21 22 23 22 22 20 20 20 21 20 21 20 21 21 22 21 22 25 24 28 26 25 27 26 26 24 28 28 31 32 32 28 23 16 9 11 14 16
19 18 20 22 22 22 22 22 22 23 21 21 19 21 21 19 17 17 18 19 20 20 20 21 21 24 29 27 29 30 25 25 27 25 27 30 30 28 27 22 15 10 11 13 16
Wind_Direction
302 304 303 300 298 298 295 294 292 282 274 272 267 266 267 269 269 340 239 101 94 90 87 41 3 357 343 14 355 355 327 337 346 355 8 2 14 4 2 26 47 49 38 78 118
304 302 298 297 297 295 293 292 285 274 268 269 267 266 270 276 285 268 62 81 54 84 85 74 64 81 60 43 4 349 328 341 346 354 351 348 11 31 39 87 62 70 56 92 110
307 299 296 296 295 291 289 284 278 268 266 270 268 268 276 287 310 323 17 80 114 91 61 71 64 63 45 72 43 357 323 340 329 346 355 8 15 18 104 145 137 72 83 103 112
303 295 293 293 292 289 286 280 274 266 270 271 271 269 269 291 351 313 9 62 58 54 42 55 35 29 24 29 38 353 348 336 324 343 351 9 3 35 130 159 4 84 117 116 128
297 297 294 293 291 288 284 278 274 272 272 274 267 264 287 318 334 326 30 37 31 34 42 33 18 17 15 17 12 359 348 335 321 326 343 5 126 103 159 153 2 48 102 135 138
301 298 296 293 291 289 283 279 277 274 269 269 271 289 311 344 331 16 34 29 23 31 29 12 0 9 9 -0 352 349 326 309 315 308 323 333 334 343 327 131 63 70 139 148 152
300 297 293 293 289 288 283 276 280 272 275 279 307 324 323 345 340 33 43 19 26 26 9 3 355 350 354 352 347 337 319 310 319 322 320 335 324 335 336 89 96 146 141 156 160
296 294 292 292 289 288 280 277 275 280 292 307 334 314 339 338 340 16 31 358 9 20 353 347 349 338 341 338 331 330 340 341 342 335 336 330 313 321 341 99 153 158 156 149 173
294 294 292 292 291 289 285 278 279 305 316 352 319 323 351 337 349 1 38 10 13 5 354 350 347 343 340 339 343 347 342 334 335 347 341 331 314 312 308 202 188 172 170 169 175
295 294 294 292 290 291 290 306 338 334 322 317 319 336 344 344 357 7 31 9 358 352 2 0 -0 2 359 5 357 347 337 332 326 336 347 344 327 322 329 313 310 301 185 185 190
295 296 296 293 291 290 298 308 308 306 308 305 318 335 330 326 341 9 12 13 7 7 14 9 18 8 358 359 347 336 332 326 332 342 352 350 346 340 349 342 332 316 198 219 235
296 298 298 295 291 298 323 314 314 314 296 307 329 337 331 338 352 359 20 35 45 36 26 19 19 10 354 348 346 332 321 331 338 4 4 356 351 355 360 346 334 269 248 231 224
297 300 299 297 292 313 304 319 305 343 315 311 345 350 355 23 343 314 75 72 47 33 51 63 63 1 355 353 347 341 336 338 339 340 352 335 337 340 350 347 345 315 226 229 224
297 300 299 294 301 298 303 303 315 345 321 344 354 344 358 342 309 58 86 43 23 44 71 60 79 61 10 348 354 345 357 339 335 335 325 332 319 330 326 330 339 329 319 281 305
296 299 296 296 283 294 298 298 327 336 297 350 350 327 316 344 319 327 22 22 13 11 31 21 51 52 71 26 21 344 3 345 343 338 340 333 335 333 340 341 335 335 333 337 347
295 297 294 297 289 286 286 312 328 310 299 340 344 325 324 302 316 345 16 8 1 7 23 63 94 81 87 35 8 4 356 346 347 340 327 334 337 329 332 343 331 336 344 1 20
294 291 288 288 286 284 291 315 302 296 310 317 323 305 310 310 307 330 6 19 330 343 2 15 51 85 55 54 43 358 3 349 343 338 335 343 336 339 344 339 333 326 331 346 21
293 287 296 280 283 285 302 303 285 299 302 300 299 294 304 309 300 320 343 357 345 328 341 0 14 21 78 42 54 57 33 17 7 1 356 348 340 337 3 346 333 324 333 352 2
292 293 288 284 273 284 295 283 290 298 291 296 297 292 292 305 308 313 315 336 343 340 332 350 3 8 12 11 34 45 14 24 21 18 15 359 353 345 6 354 340 335 343 351 359
291 286 284 284 297 297 288 281 288 290 288 292 302 299 287 298 308 313 317 317 324 332 340 341 337 349 3 19 1 20 31 6 1 43 65 39 23 25 27 20 5 7 7 353 5
290 278 286 282 290 290 281 283 284 282 292 291 292 302 302 301 309 309 304 310 316 326 345 348 340 338 349 348 344 338 340 342 352 353 46 58 47 29 20 42 30 25 12 5 6
285 269 286 279 277 288 285 288 291 283 289 285 290 295 295 302 307 315 314 311 310 320 322 333 336 327 331 330 359 359 334 326 328 338 352 19 359 1 16 25 19 23 12 4 6
280 272 284 275 270 278 287 288 292 287 284 284 287 291 296 300 300 310 316 319 316 320 322 326 324 320 323 334 339 338 336 334 333 327 329 345 351 360 358 359 358 359 2 360 354
280 266 273 277 280 282 286 287 287 291 287 286 287 289 291 295 303 307 307 307 311 314 315 314 313 312 310 314 322 322 322 322 318 315 313 319 319 324 328 332 338 342 351 355 351
283 272 273 270 274 280 284 288 284 283 291 291 288 289 289 291 296 300 303 306 311 309 310 310 308 307 308 313 313 310 310 313 311 309 308 307 312 315 319 323 325 329 339 345 349
277 274 277 276 278 279 282 282 284 284 287 287 288 289 293 293 298 301 305 305 304 308 309 311 307 308 305 309 309 304 303 305 308 307 305 306 307 312 318 324 326 324 333 337 342
284 286 281 277 278 277 280 284 286 288 288 292 292 290 291 297 307 311 312 312 309 308 308 309 309 309 304 308 307 303 304 302 304 306 307 306 311 318 320 324 325 320 328 333 337